Total_Precipitation_Accumulation
0.30 0.38 0.38 0.37 0.37 0.36 0.36 0.32 0.31 0.32 0.31 0.30 0.32 0.32 0.29 0.29 0.46 0.74 0.65 0.24 0.38 0.26 0.06 0.00 0.00 0.00 0.00 0.00 0.00 0.00 0.00 0.00 0.00 0.00 0.00 0.00 0.00 0.00 0.00 0.00 0.00 0.00 0.00 0.00 0.00 0.00 0.00 0.00 0.00 0.00 0.00 0.00 0.00 0.00
0.21 0.31 0.35 0.34 0.37 0.38 0.40 0.39 0.33 0.32 0.31 0.30 0.29 0.34 0.39 0.43 0.42 0.61 0.70 0.24 0.32 0.40 0.11 0.01 0.00 0.00 0.00 0.00 0.01 0.01 0.00 0.00 0.00 0.00 0.00 0.00 0.00 0.00 0.00 0.00 0.00 0.00 0.00 0.00 0.00 0.00 0.00 0.00 0.00 0.00 0.00 0.00 0.00 0.00
0.18 0.25 0.30 0.31 0.33 0.36 0.38 0.40 0.38 0.35 0.33 0.31 0.30 0.33 0.40 0.40 0.50 0.74 0.62 0.18 0.40 0.43 0.19 0.03 0.00 0.00 0.00 0.00 0.00 0.03 0.00 0.00 0.00 0.00 0.00 0.00 0.00 0.00 0.00 0.00 0.00 0.00 0.00 0.00 0.00 0.00 0.00 0.00 0.00 0.00 0.00 0.00 0.00 0.01
0.23 0.33 0.38 0.36 0.34 0.36 0.37 0.37 0.37 0.35 0.35 0.34 0.32 0.29 0.37 0.48 0.51 0.69 0.70 0.22 0.36 0.46 0.33 0.06 0.00 0.00 0.00 0.00 0.00 0.01 0.00 0.00 0.00 0.00 0.02 0.01 0.00 0.00 0.00 0.00 0.00 0.00 0.00 0.00 0.00 0.00 0.00 0.00 0.00 0.00 0.00 0.01 0.01 0.01
0.17 0.22 0.30 0.39 0.41 0.39 0.40 0.40 0.37 0.34 0.34 0.36 0.35 0.37 0.38 0.44 0.53 0.74 0.60 0.21 0.29 0.43 0.32 0.09 0.02 0.00 0.00 0.00 0.00 0.01 0.00 0.01 0.01 0.02 0.03 0.01 0.00 0.00 0.00 0.00 0.00 0.00 0.00 0.00 0.00 0.00 0.00 0.00 0.00 0.00 0.00 0.00 0.00 0.00
0.27 0.31 0.33 0.31 0.36 0.40 0.42 0.42 0.40 0.34 0.31 0.39 0.38 0.37 0.38 0.54 0.70 1.21 1.20 0.39 0.17 0.32 0.42 0.21 0.06 0.00 0.00 0.00 0.00 0.00 0.01 0.02 0.03 0.03 0.02 0.00 0.00 0.00 0.00 0.00 0.00 0.00 0.00 0.00 0.00 0.00 0.00 0.00 0.00 0.00 0.00 0.00 0.00 0.00
0.25 0.26 0.41 0.40 0.38 0.36 0.42 0.48 0.46 0.42 0.32 0.34 0.38 0.41 0.43 0.60 1.02 1.14 0.86 0.46 0.10 0.20 0.50 0.30 0.15 0.02 0.00 0.01 0.01 0.01 0.05 0.05 0.09 0.06 0.02 0.00 0.00 0.00 0.01 0.00 0.00 0.00 0.00 0.00 0.00 0.00 0.00 0.00 0.00 0.00 0.00 0.00 0.00 0.00
0.31 0.31 0.43 0.48 0.47 0.41 0.43 0.47 0.44 0.46 0.40 0.39 0.41 0.42 0.54 0.93 1.13 0.67 0.16 0.13 0.23 0.53 0.46 0.35 0.35 0.10 0.03 0.04 0.04 0.04 0.07 0.08 0.12 0.06 0.03 0.00 0.00 0.00 0.00 0.00 0.00 0.00 0.00 0.00 0.00 0.00 0.00 0.00 0.00 0.00 0.00 0.00 0.00 0.00
0.23 0.25 0.35 0.48 0.49 0.47 0.47 0.50 0.52 0.46 0.47 0.55 0.58 0.75 1.27 1.61 1.48 0.50 0.10 0.12 0.43 0.90 0.68 0.25 0.27 0.25 0.05 0.08 0.05 0.07 0.09 0.10 0.10 0.10 0.03 0.01 0.02 0.01 0.00 0.00 0.00 0.00 0.00 0.00 0.00 0.00 0.00 0.00 0.00 0.00 0.00 0.00 0.00 0.00
0.24 0.25 0.32 0.45 0.48 0.46 0.51 0.49 0.53 0.56 0.60 1.06 1.72 1.89 1.99 1.19 0.44 0.40 0.52 0.74 1.11 0.95 0.54 0.24 0.07 0.21 0.06 0.05 0.08 0.07 0.07 0.05 0.05 0.03 0.02 0.04 0.01 0.00 0.00 0.00 0.00 0.00 0.00 0.00 0.00 0.00 0.00 0.00 0.00 0.00 0.00 0.00 0.00 0.00
0.35 0.38 0.40 0.53 0.53 0.46 0.52 0.54 0.66 0.93 1.52 2.20 1.96 1.12 0.81 0.55 0.66 0.97 1.47 1.29 1.22 0.91 0.27 0.08 0.12 0.10 0.03 0.01 0.04 0.03 0.07 0.03 0.04 0.02 0.01 0.02 0.00 0.00 0.00 0.00 0.00 0.00 0.00 0.00 0.00 0.00 0.00 0.00 0.00 0.00 0.00 0.00 0.00 0.00
0.49 0.57 0.57 0.68 0.65 0.52 0.58 0.74 1.14 1.80 1.47 1.03 0.87 0.88 0.99 0.87 1.05 1.07 0.90 0.72 0.36 0.36 0.11 0.06 0.14 0.05 0.01 0.02 0.02 0.02 0.03 0.02 0.01 0.01 0.04 0.01 0.00 0.00 0.00 0.00 0.01 0.01 0.00 0.00 0.00 0.00 0.00 0.00 0.00 0.00 0.00 0.00 0.00 0.00
0.55 0.65 0.75 0.80 0.71 0.56 0.74 1.16 1.10 0.72 0.39 0.52 0.75 0.78 0.93 1.11 0.79 0.64 0.53 0.39 0.24 0.11 0.05 0.05 0.15 0.10 0.03 0.03 0.04 0.02 0.02 0.02 0.02 0.07 0.04 0.00 0.00 0.00 0.00 0.00 0.01 0.04 0.01 0.00 0.00 0.00 0.00 0.00 0.00 0.00 0.00 0.00 0.00 0.00
0.52 0.71 0.83 0.81 0.62 0.73 1.17 0.98 0.51 0.39 0.49 0.64 0.62 0.74 0.55 0.46 0.25 0.12 0.12 0.08 0.08 0.05 0.05 0.02 0.16 0.10 0.03 0.03 0.02 0.03 0.02 0.03 0.04 0.03 0.01 0.02 0.02 0.00 0.01 0.02 0.02 0.01 0.00 0.00 0.00 0.00 0.00 0.00 0.00 0.00 0.00 0.00 0.00 0.00
0.42 0.69 0.74 0.66 0.81 0.78 0.74 0.40 0.43 0.39 0.42 0.42 0.35 0.32 0.16 0.13 0.05 0.02 0.03 0.02 0.09 0.04 0.02 0.01 0.07 0.04 0.05 0.02 0.03 0.03 0.06 0.03 0.01 0.01 0.05 0.08 0.06 0.04 0.02 0.01 0.01 0.01 0.01 0.01 0.00 0.00 0.00 0.00 0.00 0.00 0.00 0.00 0.00 0.00
0.56 0.88 0.84 0.75 0.59 0.42 0.61 0.50 0.48 0.39 0.29 0.25 0.28 0.25 0.12 0.11 0.07 0.08 0.05 0.04 0.09 0.06 0.08 0.09 0.10 0.11 0.06 0.02 0.02 0.01 0.01 0.00 0.02 0.03 0.04 0.02 0.03 0.06 0.05 0.03 0.03 0.03 0.01 0.00 0.00 0.00 0.00 0.00 0.00 0.00 0.00 0.00 0.00 0.00
1.03 1.23 0.75 0.58 0.61 1.05 0.90 0.60 0.48 0.34 0.25 0.19 0.22 0.16 0.10 0.13 0.13 0.05 0.05 0.03 0.06 0.06 0.29 0.27 0.17 0.08 0.05 0.04 0.02 0.00 0.00 0.01 0.01 0.01 0.00 0.01 0.01 0.01 0.02 0.01 0.00 0.00 0.00 0.00 0.00 0.00 0.00 0.00 0.00 0.00 0.00 0.00 0.00 0.00
0.68 0.79 1.02 1.17 1.25 0.88 0.55 0.30 0.27 0.25 0.25 0.26 0.36 0.12 0.06 0.06 0.11 0.08 0.11 0.07 0.03 0.02 0.07 0.14 0.10 0.05 0.02 0.01 0.01 0.00 0.02 0.05 0.03 0.01 0.01 0.01 0.02 0.02 0.01 0.00 0.00 0.00 0.00 0.00 0.00 0.00 0.00 0.00 0.00 0.00 0.00 0.00 0.00 0.00
0.72 0.83 0.67 0.38 0.15 0.29 0.65 0.56 0.32 0.33 0.43 0.48 0.33 0.12 0.09 0.09 0.12 0.10 0.10 0.09 0.03 0.04 0.05 0.08 0.10 0.08 0.02 0.00 0.00 0.03 0.05 0.02 0.02 0.02 0.02 0.03 0.02 0.02 0.01 0.00 0.00 0.00 0.00 0.00 0.00 0.00 0.00 0.00 0.00 0.00 0.00 0.00 0.01 0.00
0.47 0.37 0.17 0.10 0.10 0.17 0.35 0.47 0.17 0.43 0.61 0.49 0.20 0.11 0.11 0.14 0.12 0.22 0.23 0.20 0.17 0.19 0.17 0.10 0.08 0.03 0.02 0.01 0.03 0.04 0.02 0.00 0.00 0.02 0.07 0.08 0.03 0.00 0.00 0.00 0.00 0.00 0.00 0.00 0.00 0.00 0.00 0.00 0.00 0.00 0.00 0.01 0.01 0.00
1.13 0.69 0.38 0.30 0.28 0.27 0.39 0.41 0.17 0.21 0.14 0.14 0.08 0.05 0.24 0.27 0.33 0.39 0.43 0.30 0.25 0.21 0.18 0.05 0.01 0.00 0.00 0.01 0.03 0.04 0.03 0.01 0.00 0.00 0.01 0.03 0.01 0.00 0.00 0.00 0.00 0.00 0.00 0.00 0.00 0.00 0.00 0.00 0.00 0.00 0.00 0.00 0.00 0.00
0.69 0.24 0.28 0.28 0.27 0.16 0.12 0.02 0.04 0.02 0.03 0.09 0.04 0.09 0.26 0.38 0.42 0.44 0.32 0.28 0.26 0.14 0.08 0.01 0.00 0.00 0.00 0.00 0.00 0.01 0.01 0.02 0.01 0.00 0.00 0.00 0.00 0.00 0.00 0.00 0.00 0.00 0.00 0.00 0.00 0.00 0.00 0.00 0.00 0.00 0.00 0.01 0.02 0.02
0.19 0.22 0.28 0.26 0.14 0.10 0.16 0.00 0.00 0.00 0.06 0.08 0.03 0.07 0.10 0.12 0.17 0.15 0.18 0.22 0.20 0.22 0.12 0.01 0.01 0.00 0.00 0.01 0.01 0.01 0.00 0.00 0.01 0.00 0.00 0.00 0.00 0.00 0.00 0.00 0.00 0.00 0.00 0.00 0.00 0.00 0.00 0.00 0.00 0.00 0.00 0.02 0.04 0.02
0.16 0.25 0.22 0.10 0.03 0.09 0.08 0.01 0.00 0.01 0.02 0.01 0.01 0.03 0.04 0.03 0.03 0.02 0.06 0.11 0.20 0.23 0.13 0.05 0.04 0.04 0.07 0.05 0.03 0.03 0.02 0.00 0.01 0.01 0.00 0.00 0.00 0.00 0.00 0.00 0.00 0.00 0.00 0.00 0.00 0.00 0.00 0.00 0.00 0.00 0.00 0.00 0.00 0.01
0.13 0.15 0.03 0.02 0.00 0.00 0.01 0.02 0.01 0.00 0.02 0.00 0.00 0.01 0.01 0.00 0.01 0.02 0.06 0.18 0.27 0.27 0.20 0.14 0.13 0.07 0.08 0.13 0.12 0.11 0.07 0.01 0.00 0.01 0.00 0.00 0.00 0.00 0.00 0.00 0.00 0.00 0.00 0.00 0.00 0.00 0.00 0.00 0.00 0.00 0.01 0.00 0.00 0.01
0.03 0.01 0.00 0.00 0.00 0.00 0.00 0.00 0.00 0.00 0.00 0.00 0.00 0.00 0.00 0.00 0.02 0.05 0.11 0.29 0.28 0.27 0.14 0.06 0.05 0.10 0.15 0.07 0.05 0.05 0.06 0.01 0.00 0.00 0.00 0.00 0.00 0.00 0.00 0.00 0.00 0.00 0.00 0.00 0.00 0.00 0.00 0.00 0.00 0.00 0.00 0.00 0.01 0.02
0.00 0.00 0.00 0.00 0.00 0.00 0.00 0.00 0.00 0.00 0.00 0.00 0.00 0.00 0.00 0.00 0.01 0.05 0.10 0.16 0.20 0.18 0.07 0.03 0.01 0.01 0.03 0.03 0.00 0.00 0.00 0.00 0.00 0.00 0.00 0.00 0.00 0.00 0.00 0.00 0.00 0.00 0.00 0.00 0.00 0.00 0.00 0.00 0.00 0.00 0.00 0.00 0.01 0.04
0.00 0.00 0.00 0.00 0.00 0.00 0.00 0.00 0.00 0.00 0.00 0.00 0.00 0.00 0.01 0.01 0.05 0.08 0.12 0.19 0.16 0.06 0.01 0.02 0.03 0.01 0.01 0.00 0.00 0.00 0.00 0.00 0.00 0.00 0.00 0.00 0.00 0.00 0.00 0.00 0.00 0.00 0.00 0.00 0.00 0.00 0.00 0.01 0.01 0.01 0.01 0.01 0.03 0.05
0.00 0.00 0.00 0.00 0.00 0.00 0.00 0.01 0.01 0.00 0.00 0.00 0.00 0.01 0.02 0.06 0.13 0.08 0.12 0.14 0.16 0.09 0.05 0.05 0.07 0.03 0.01 0.01 0.00 0.00 0.00 0.00 0.00 0.00 0.00 0.00 0.00 0.00 0.00 0.00 0.00 0.00 0.00 0.00 0.00 0.00 0.01 0.01 0.02 0.02 0.02 0.03 0.06 0.07
0.00 0.00 0.00 0.00 0.01 0.02 0.04 0.03 0.03 0.02 0.00 0.00 0.00 0.01 0.03 0.11 0.25 0.22 0.17 0.17 0.15 0.15 0.10 0.05 0.03 0.01 0.00 0.00 0.00 0.00 0.00 0.00 0.00 0.00 0.00 0.00 0.00 0.00 0.00 0.00 0.00 0.00 0.00 0.01 0.02 0.01 0.00 0.01 0.02 0.03 0.04 0.05 0.08 0.09
0.01 0.00 0.00 0.00 0.04 0.08 0.07 0.04 0.02 0.01 0.01 0.01 0.00 0.00 0.03 0.11 0.14 0.15 0.15 0.16 0.12 0.11 0.07 0.05 0.02 0.00 0.00 0.00 0.00 0.00 0.00 0.00 0.00 0.00 0.00 0.00 0.00 0.00 0.00 0.00 0.00 0.01 0.03 0.04 0.04 0.04 0.03 0.03 0.03 0.04 0.04 0.04 0.04 0.06
0.01 0.00 0.00 0.02 0.08 0.08 0.06 0.03 0.01 0.03 0.03 0.02 0.03 0.03 0.03 0.01 0.04 0.12 0.14 0.19 0.09 0.08 0.05 0.02 0.00 0.01 0.00 0.00 0.00 0.00 0.01 0.00 0.00 0.00 0.00 0.00 0.00 0.01 0.01 0.02 0.03 0.06 0.08 0.07 0.05 0.05 0.05 0.05 0.05 0.06 0.08 0.08 0.07 0.07
0.02 0.00 0.00 0.01 0.03 0.02 0.02 0.01 0.02 0.06 0.05 0.05 0.08 0.07 0.05 0.03 0.04 0.06 0.08 0.10 0.04 0.02 0.01 0.01 0.00 0.00 0.00 0.00 0.00 0.00 0.00 0.00 0.00 0.00 0.00 0.00 0.00 0.01 0.03 0.04 0.07 0.10 0.12 0.08 0.06 0.06 0.06 0.06 0.09 0.09 0.10 0.10 0.09 0.08